Weather History for Cleveland Burke, OH

Change the Weather History Date:

Wednesday, January 30, 2013

  Actual Average Record
Temperature  
Mean Temperature 50 °F -  
Max Temperature 64 °F 34 °F 64 °F (2013)
Min Temperature 37 °F 22 °F 6 °F (2003)
Degree Days  
Heating Degree Days 14    
Moisture  
Dew Point 48 °F    
Average Humidity 84    
Maximum Humidity 100    
Minimum Humidity 65    
Precipitation  
Precipitation 0.53 in - - ()
Sea Level Pressure  
Sea Level Pressure 29.31 in    
Wind  
Wind Speed 20 mph (SSW)    
Max Wind Speed 36 mph    
Max Gust Speed 48 mph    
Visibility 8 miles    
Events Fog , Rain    
Averages and records for this station are not official NWS values.
T = Trace of Precipitation, MM = Missing Value Source: NWS Daily Summary

Daily Weather History Graph

Daily Weather History Graph

Search for Another Location

Airport:

Trip Planner

Search our weather history database for the weather conditions in past years. The results will help you decide how hot, cold, wet, or windy it might be!

Date:

Astronomy

Jan. 30, 2013 Rise Set
Actual Time 7:40 AM EST 5:40 PM EST
Civil Twilight 7:10 AM EST 6:09 PM EST
Nautical Twilight 6:37 AM EST 6:43 PM EST
Astronomical Twilight 6:04 AM EST 7:15 PM EST
Moon 9:41 PM EST (1/30) 9:03 AM EST (1/30)
Length of Visible Light 10h 59m
Length of Day
10h 00m
Waning Gibbous, 88% of the Moon is Illuminated
Jan 30
Waning Gibbous
Feb 3
Last Quarter
Feb 10
New
Feb 17
First Quarter
Feb 25
Full

Hourly Weather History & Observations

Time (EST) Temp. Windchill Dew Point Humidity Pressure Visibility Wind Dir Wind Speed Gust Speed Precip Events Conditions
12:53 AM 63.0 °F - 54.0 °F 72% 29.55 in 10.0 mi South 21.9 mph 38.0 mph N/A   Clear
1:53 AM 64.0 °F - 55.0 °F 73% 29.52 in 10.0 mi South 23.0 mph 33.4 mph N/A   Clear
2:53 AM 63.0 °F - 54.0 °F 72% 29.48 in 10.0 mi South 21.9 mph 34.5 mph N/A   Clear
3:53 AM 64.0 °F - 52.0 °F 65% 29.43 in 10.0 mi South 20.7 mph 35.7 mph N/A   Clear
4:53 AM 64.0 °F - 52.0 °F 65% 29.39 in 10.0 mi South 21.9 mph 34.5 mph N/A   Clear
5:53 AM 64.0 °F - 52.0 °F 65% 29.37 in 10.0 mi South 18.4 mph 32.2 mph N/A   Partly Cloudy
6:53 AM 64.0 °F - 52.0 °F 65% 29.33 in 10.0 mi South 23.0 mph 33.4 mph N/A   Mostly Cloudy
7:53 AM 64.9 °F - 53.1 °F 65% 29.28 in 10.0 mi South 18.4 mph 29.9 mph 0.00 in   Mostly Cloudy
8:08 AM 53.6 °F - 50.0 °F 88% 29.37 in 1.8 mi West 33.4 mph 39.1 mph 0.12 in Rain Heavy Rain
8:13 AM 51.8 °F - 50.0 °F 94% 29.37 in 4.0 mi WSW 20.7 mph 39.1 mph 0.15 in Rain Light Rain
8:40 AM 46.4 °F 39.8 °F 46.4 °F 100% 29.41 in 4.0 mi West 16.1 mph 26.5 mph 0.21 in Rain Light Rain
8:43 AM 44.6 °F 38.1 °F 44.6 °F 100% 29.42 in 0.2 mi WSW 13.8 mph - 0.21 in Fog , Rain Light Rain
8:53 AM 46.0 °F 41.0 °F 46.0 °F 100% 29.41 in 0.2 mi SW 10.4 mph - 0.22 in Fog , Rain Light Rain
8:58 AM 48.2 °F - 48.2 °F 100% 29.40 in 1.0 mi SW 9.2 mph - 0.00 in Rain Light Rain
9:11 AM 50.0 °F - 50.0 °F 100% 29.40 in 4.0 mi SW 8.1 mph - 0.01 in   Overcast
9:19 AM 51.8 °F - 51.8 °F 100% 29.40 in 10.0 mi South 4.6 mph - 0.01 in Rain Light Rain
9:53 AM 54.0 °F - 54.0 °F 100% 29.38 in 5.0 mi SE 11.5 mph - 0.05 in Rain Rain
10:53 AM 57.0 °F - 55.0 °F 93% 29.37 in 10.0 mi South 20.7 mph 26.5 mph 0.01 in   Overcast
11:53 AM 59.0 °F - 52.0 °F 78% 29.28 in 10.0 mi South 25.3 mph 33.4 mph N/A   Overcast
12:53 PM 59.0 °F - 52.0 °F 78% 29.28 in 10.0 mi South 16.1 mph 28.8 mph N/A   Overcast
1:41 PM 53.6 °F - 48.2 °F 82% 29.29 in 10.0 mi SW 12.7 mph 23.0 mph N/A   Partly Cloudy
1:53 PM 59.0 °F - 51.1 °F 75% 29.30 in 10.0 mi SSW 11.5 mph 21.9 mph N/A   Overcast
3:53 PM 57.9 °F - 50.0 °F 75% 29.26 in 10.0 mi South 19.6 mph 28.8 mph N/A   Overcast
4:53 PM 57.9 °F - 50.0 °F 75% 29.25 in 10.0 mi SSW 20.7 mph 32.2 mph N/A   Overcast
5:53 PM 57.0 °F - 51.1 °F 81% 29.22 in 10.0 mi South 16.1 mph 23.0 mph 0.00 in   Overcast
6:49 PM 53.6 °F - 50.0 °F 88% 29.20 in 5.0 mi WSW 13.8 mph 19.6 mph 0.02 in Rain Rain
6:53 PM 54.0 °F - 51.1 °F 90% 29.20 in 3.0 mi SW 13.8 mph 24.2 mph 0.05 in Rain Heavy Rain
7:04 PM 53.6 °F - 50.0 °F 88% 29.21 in 2.5 mi SSW 27.6 mph 38.0 mph 0.08 in Rain Light Rain
7:08 PM 53.6 °F - 50.0 °F 88% 29.20 in 3.0 mi SSW 16.1 mph 38.0 mph 0.10 in Rain Rain
7:53 PM 54.0 °F - 51.1 °F 90% 29.18 in 8.0 mi SSW 13.8 mph 24.2 mph 0.13 in Rain Light Rain
8:53 PM 54.0 °F - 48.0 °F 80% 29.15 in 10.0 mi SW 19.6 mph 28.8 mph 0.01 in   Scattered Clouds
9:36 PM 42.8 °F 31.6 °F 37.4 °F 81% 29.18 in 10.0 mi West 34.5 mph 48.3 mph N/A   Overcast
9:53 PM 41.0 °F 29.0 °F 36.0 °F 82% 29.21 in 9.0 mi West 35.7 mph 46.0 mph 0.00 in Rain Light Rain
10:06 PM 39.2 °F 28.3 °F 37.4 °F 93% 29.23 in 4.0 mi West 25.3 mph - 0.02 in Rain Light Rain
10:15 PM 39.2 °F 27.8 °F 37.4 °F 93% 29.23 in 6.0 mi WSW 27.6 mph 35.7 mph 0.03 in Rain Rain
10:53 PM 37.9 °F 27.1 °F 36.0 °F 93% 29.24 in 10.0 mi WSW 23.0 mph 28.8 mph 0.06 in Rain Light Rain
11:12 PM 37.4 °F 26.6 °F 33.8 °F 87% 29.23 in 10.0 mi WSW 21.9 mph 27.6 mph 0.00 in   Overcast
11:48 PM 37.4 °F 25.6 °F 33.8 °F 87% 29.26 in 10.0 mi WSW 26.5 mph 31.1 mph 0.00 in   Overcast
11:53 PM 37.0 °F 25.6 °F 34.0 °F 89% 29.26 in 10.0 mi WSW 24.2 mph 31.1 mph 0.00 in   Overcast